QPF
0.00 0.00 0.00 0.00 0.00 0.00 0.00 0.01 0.02 0.02 0.01 0.00 0.00 0.01 0.02 0.03 0.03 0.02 0.01 0.01 0.03 0.03 0.04 0.04 0.04 0.04 0.05 0.06 0.07 0.07 0.07 0.07 0.07 0.07 0.08 0.10 0.09 0.07 0.06 0.05 0.04 0.03 0.03 0.04
0.00 0.00 0.00 0.00 0.00 0.00 0.00 0.01 0.01 0.02 0.02 0.02 0.01 0.01 0.03 0.05 0.03 0.03 0.02 0.03 0.03 0.03 0.07 0.09 0.06 0.04 0.06 0.08 0.08 0.09 0.11 0.10 0.09 0.09 0.08 0.08 0.08 0.07 0.05 0.05 0.06 0.04 0.04 0.04
0.00 0.00 0.00 0.00 0.00 0.00 0.00 0.00 0.01 0.02 0.02 0.01 0.01 0.04 0.05 0.05 0.06 0.03 0.03 0.03 0.02 0.02 0.07 0.13 0.06 0.04 0.07 0.08 0.10 0.10 0.10 0.10 0.12 0.12 0.09 0.07 0.07 0.06 0.06 0.05 0.05 0.06 0.06 0.06
0.00 0.00 0.00 0.01 0.01 0.00 0.00 0.00 0.01 0.02 0.02 0.02 0.02 0.05 0.06 0.08 0.10 0.06 0.03 0.03 0.01 0.02 0.05 0.06 0.06 0.07 0.09 0.11 0.12 0.10 0.08 0.07 0.07 0.10 0.11 0.09 0.07 0.07 0.06 0.05 0.06 0.07 0.06 0.06
0.00 0.00 0.00 0.00 0.00 0.00 0.00 0.00 0.00 0.01 0.02 0.04 0.02 0.05 0.09 0.10 0.08 0.05 0.02 0.01 0.02 0.03 0.06 0.05 0.04 0.06 0.09 0.10 0.10 0.08 0.07 0.07 0.07 0.08 0.10 0.10 0.08 0.06 0.05 0.04 0.04 0.05 0.05 0.05
0.00 0.00 0.00 0.01 0.00 0.00 0.00 0.00 0.01 0.01 0.03 0.06 0.03 0.06 0.11 0.13 0.08 0.05 0.04 0.02 0.01 0.04 0.08 0.06 0.03 0.04 0.06 0.07 0.07 0.07 0.07 0.10 0.10 0.09 0.09 0.08 0.07 0.06 0.04 0.03 0.03 0.02 0.03 0.04
0.00 0.00 0.00 0.00 0.00 0.00 0.00 0.01 0.04 0.06 0.08 0.05 0.04 0.08 0.13 0.14 0.12 0.11 0.05 0.03 0.02 0.03 0.05 0.08 0.07 0.04 0.05 0.06 0.06 0.07 0.08 0.12 0.17 0.15 0.11 0.08 0.08 0.06 0.05 0.04 0.04 0.04 0.04 0.04
0.01 0.00 0.00 0.00 0.00 0.01 0.00 0.01 0.06 0.07 0.07 0.05 0.04 0.09 0.11 0.08 0.08 0.11 0.08 0.06 0.03 0.03 0.04 0.09 0.09 0.07 0.06 0.06 0.07 0.08 0.09 0.10 0.12 0.15 0.13 0.08 0.06 0.05 0.05 0.04 0.04 0.04 0.04 0.04
0.01 0.01 0.00 0.00 0.00 0.01 0.02 0.02 0.04 0.07 0.06 0.07 0.07 0.10 0.15 0.14 0.10 0.06 0.05 0.05 0.05 0.06 0.07 0.08 0.08 0.08 0.07 0.07 0.09 0.09 0.08 0.08 0.08 0.09 0.11 0.07 0.05 0.05 0.05 0.05 0.05 0.04 0.05 0.04
0.00 0.01 0.00 0.00 0.01 0.01 0.02 0.02 0.03 0.05 0.07 0.09 0.09 0.10 0.15 0.18 0.13 0.07 0.05 0.05 0.05 0.05 0.05 0.06 0.08 0.07 0.05 0.05 0.06 0.07 0.07 0.07 0.05 0.05 0.06 0.05 0.05 0.05 0.07 0.06 0.09 0.09 0.07 0.05
0.01 0.01 0.01 0.01 0.01 0.02 0.04 0.04 0.04 0.05 0.07 0.09 0.13 0.16 0.16 0.16 0.12 0.08 0.05 0.04 0.04 0.04 0.05 0.06 0.07 0.07 0.05 0.04 0.04 0.05 0.05 0.03 0.02 0.03 0.03 0.04 0.05 0.06 0.09 0.10 0.11 0.11 0.09 0.06
0.01 0.02 0.02 0.01 0.01 0.01 0.04 0.05 0.04 0.07 0.09 0.12 0.17 0.22 0.15 0.13 0.10 0.07 0.06 0.05 0.05 0.05 0.06 0.07 0.07 0.05 0.04 0.04 0.03 0.04 0.03 0.02 0.02 0.02 0.02 0.03 0.04 0.05 0.06 0.08 0.07 0.07 0.07 0.06
0.01 0.02 0.03 0.03 0.02 0.02 0.03 0.04 0.04 0.05 0.08 0.11 0.16 0.20 0.15 0.11 0.09 0.06 0.05 0.04 0.05 0.06 0.06 0.06 0.06 0.06 0.05 0.05 0.04 0.03 0.02 0.02 0.02 0.02 0.02 0.03 0.05 0.06 0.05 0.08 0.08 0.07 0.06 0.05
0.01 0.03 0.03 0.05 0.05 0.04 0.06 0.05 0.04 0.05 0.08 0.11 0.12 0.12 0.10 0.08 0.09 0.08 0.05 0.04 0.03 0.03 0.04 0.05 0.07 0.07 0.07 0.05 0.04 0.03 0.03 0.03 0.03 0.03 0.03 0.03 0.05 0.07 0.09 0.10 0.10 0.07 0.05 0.04
0.01 0.04 0.04 0.03 0.03 0.03 0.05 0.04 0.04 0.05 0.06 0.09 0.07 0.06 0.08 0.05 0.05 0.07 0.05 0.04 0.04 0.04 0.06 0.07 0.06 0.06 0.07 0.05 0.04 0.04 0.04 0.03 0.03 0.04 0.03 0.03 0.04 0.05 0.07 0.10 0.09 0.05 0.04 0.03
0.01 0.05 0.07 0.03 0.02 0.02 0.03 0.03 0.03 0.03 0.04 0.05 0.07 0.08 0.05 0.04 0.03 0.05 0.05 0.04 0.05 0.04 0.06 0.06 0.05 0.05 0.06 0.06 0.05 0.05 0.05 0.04 0.04 0.03 0.02 0.02 0.03 0.03 0.05 0.06 0.06 0.03 0.02 0.02
0.02 0.05 0.07 0.03 0.01 0.03 0.04 0.03 0.03 0.03 0.04 0.04 0.06 0.08 0.05 0.03 0.03 0.05 0.07 0.07 0.05 0.04 0.05 0.07 0.07 0.07 0.07 0.07 0.07 0.06 0.04 0.02 0.03 0.03 0.02 0.02 0.04 0.02 0.03 0.03 0.02 0.02 0.02 0.02
0.03 0.04 0.05 0.04 0.03 0.05 0.04 0.05 0.04 0.03 0.04 0.04 0.03 0.04 0.04 0.05 0.04 0.06 0.07 0.08 0.05 0.06 0.06 0.07 0.09 0.09 0.08 0.07 0.07 0.06 0.05 0.04 0.04 0.03 0.02 0.03 0.04 0.03 0.02 0.02 0.02 0.02 0.03 0.02
0.01 0.01 0.03 0.04 0.05 0.05 0.04 0.04 0.07 0.04 0.05 0.04 0.03 0.04 0.05 0.05 0.06 0.08 0.07 0.06 0.06 0.07 0.06 0.06 0.09 0.09 0.07 0.06 0.06 0.05 0.05 0.04 0.04 0.03 0.02 0.03 0.04 0.03 0.02 0.02 0.03 0.04 0.02 0.02
0.01 0.01 0.03 0.04 0.06 0.06 0.08 0.06 0.05 0.06 0.08 0.05 0.03 0.04 0.05 0.05 0.07 0.08 0.06 0.06 0.07 0.07 0.06 0.06 0.07 0.07 0.07 0.06 0.05 0.05 0.04 0.04 0.03 0.03 0.03 0.02 0.03 0.04 0.04 0.03 0.03 0.04 0.04 0.03
0.03 0.02 0.02 0.03 0.06 0.09 0.08 0.08 0.05 0.08 0.09 0.05 0.04 0.04 0.04 0.05 0.06 0.06 0.05 0.05 0.06 0.05 0.06 0.06 0.08 0.07 0.06 0.06 0.05 0.06 0.06 0.04 0.03 0.03 0.02 0.03 0.04 0.04 0.04 0.04 0.04 0.04 0.05 0.05
0.04 0.04 0.03 0.04 0.06 0.09 0.05 0.04 0.05 0.06 0.05 0.03 0.03 0.03 0.03 0.03 0.02 0.03 0.03 0.03 0.05 0.06 0.05 0.06 0.10 0.13 0.13 0.12 0.09 0.08 0.07 0.04 0.03 0.03 0.03 0.03 0.04 0.03 0.02 0.03 0.03 0.04 0.05 0.04
0.04 0.04 0.03 0.04 0.06 0.05 0.03 0.03 0.02 0.02 0.02 0.02 0.03 0.03 0.03 0.02 0.01 0.02 0.02 0.03 0.05 0.05 0.05 0.07 0.08 0.08 0.09 0.11 0.08 0.06 0.05 0.04 0.03 0.03 0.03 0.03 0.02 0.02 0.02 0.03 0.03 0.03 0.03 0.03
0.03 0.02 0.03 0.03 0.03 0.03 0.02 0.01 0.01 0.01 0.01 0.01 0.02 0.02 0.02 0.02 0.02 0.02 0.02 0.03 0.04 0.04 0.05 0.06 0.07 0.06 0.06 0.09 0.08 0.05 0.03 0.03 0.02 0.02 0.03 0.02 0.02 0.01 0.02 0.03 0.03 0.02 0.02 0.02
0.03 0.03 0.04 0.04 0.03 0.03 0.01 0.01 0.01 0.00 0.00 0.00 0.01 0.01 0.01 0.01 0.03 0.02 0.02 0.03 0.04 0.05 0.04 0.05 0.06 0.05 0.05 0.07 0.07 0.07 0.03 0.03 0.03 0.03 0.03 0.03 0.03 0.02 0.02 0.02 0.02 0.02 0.02 0.01
0.03 0.03 0.04 0.04 0.03 0.03 0.02 0.01 0.01 0.00 0.00 0.00 0.01 0.01 0.01 0.02 0.02 0.02 0.03 0.04 0.05 0.05 0.04 0.04 0.04 0.04 0.04 0.05 0.05 0.05 0.04 0.03 0.03 0.03 0.03 0.04 0.04 0.04 0.03 0.02 0.01 0.01 0.01 0.01
MSLP
1006.94 1007.14 1007.20 1007.13 1006.96 1006.72 1006.45 1006.17 1005.85 1005.48 1005.01 1004.40 1003.63 1002.70 1001.65 1000.57 999.54 998.69 998.08 997.80 997.86 998.23 998.86 999.66 1000.53 1001.38 1002.16 1002.83 1003.38 1003.86 1004.28 1004.70 1005.14 1005.62 1006.12 1006.63 1007.13 1007.58 1007.96 1008.28 1008.54 1008.76 1008.96 1009.15
1007.07 1007.17 1007.13 1006.97 1006.73 1006.48 1006.23 1006.00 1005.77 1005.48 1005.08 1004.50 1003.71 1002.73 1001.59 1000.39 999.25 998.31 997.66 997.38 997.49 997.97 998.74 999.69 1000.71 1001.70 1002.58 1003.32 1003.93 1004.42 1004.84 1005.25 1005.67 1006.12 1006.59 1007.06 1007.50 1007.88 1008.19 1008.43 1008.61 1008.76 1008.89 1009.03
1007.35 1007.32 1007.15 1006.87 1006.56 1006.26 1006.03 1005.86 1005.72 1005.53 1005.22 1004.72 1003.97 1002.98 1001.81 1000.56 999.37 998.38 997.72 997.45 997.61 998.17 999.03 1000.09 1001.21 1002.28 1003.23 1004.02 1004.64 1005.13 1005.55 1005.93 1006.32 1006.73 1007.16 1007.57 1007.94 1008.24 1008.46 1008.61 1008.69 1008.75 1008.80 1008.87
1007.83 1007.65 1007.33 1006.93 1006.52 1006.19 1005.96 1005.85 1005.80 1005.73 1005.55 1005.16 1004.52 1003.61 1002.48 1001.26 1000.08 999.09 998.43 998.19 998.37 998.97 999.87 1000.97 1002.12 1003.21 1004.16 1004.94 1005.54 1006.00 1006.38 1006.72 1007.07 1007.43 1007.80 1008.15 1008.44 1008.66 1008.78 1008.82 1008.81 1008.77 1008.73 1008.72
1008.55 1008.23 1007.76 1007.23 1006.73 1006.34 1006.11 1006.05 1006.10 1006.17 1006.15 1005.92 1005.43 1004.66 1003.66 1002.53 1001.43 1000.49 999.87 999.64 999.83 1000.41 1001.30 1002.36 1003.46 1004.49 1005.37 1006.08 1006.60 1006.99 1007.30 1007.58 1007.87 1008.17 1008.47 1008.76 1008.98 1009.11 1009.15 1009.10 1008.99 1008.85 1008.73 1008.64
1009.54 1009.09 1008.48 1007.83 1007.23 1006.79 1006.56 1006.54 1006.69 1006.90 1007.04 1007.01 1006.72 1006.14 1005.32 1004.35 1003.37 1002.53 1001.96 1001.74 1001.91 1002.44 1003.24 1004.20 1005.18 1006.07 1006.82 1007.39 1007.78 1008.06 1008.26 1008.46 1008.66 1008.90 1009.14 1009.36 1009.52 1009.59 1009.55 1009.43 1009.24 1009.02 1008.81 1008.65
1010.80 1010.23 1009.51 1008.75 1008.06 1007.56 1007.31 1007.33 1007.56 1007.89 1008.20 1008.36 1008.29 1007.94 1007.33 1006.55 1005.73 1005.01 1004.50 1004.30 1004.43 1004.87 1005.54 1006.33 1007.13 1007.83 1008.38 1008.77 1009.00 1009.12 1009.20 1009.28 1009.40 1009.56 1009.74 1009.91 1010.02 1010.04 1009.95 1009.78 1009.53 1009.25 1008.99 1008.76
1012.27 1011.62 1010.80 1009.95 1009.19 1008.63 1008.35 1008.38 1008.66 1009.09 1009.54 1009.88 1010.01 1009.88 1009.50 1008.91 1008.26 1007.65 1007.21 1007.02 1007.09 1007.42 1007.93 1008.53 1009.11 1009.60 1009.93 1010.10 1010.14 1010.10 1010.03 1010.00 1010.02 1010.11 1010.23 1010.35 1010.42 1010.42 1010.31 1010.11 1009.83 1009.52 1009.21 1008.94
1013.85 1013.15 1012.28 1011.36 1010.53 1009.91 1009.60 1009.61 1009.92 1010.41 1010.95 1011.43 1011.73 1011.78 1011.58 1011.18 1010.68 1010.18 1009.79 1009.59 1009.60 1009.81 1010.16 1010.56 1010.93 1011.19 1011.30 1011.27 1011.12 1010.92 1010.71 1010.56 1010.49 1010.50 1010.57 1010.66 1010.71 1010.70 1010.58 1010.37 1010.10 1009.77 1009.45 1009.15
1015.42 1014.70 1013.80 1012.84 1011.97 1011.31 1010.96 1010.94 1011.24 1011.74 1012.34 1012.89 1013.29 1013.47 1013.41 1013.14 1012.75 1012.33 1011.98 1011.76 1011.71 1011.80 1012.00 1012.23 1012.40 1012.47 1012.40 1012.19 1011.89 1011.54 1011.22 1010.96 1010.81 1010.76 1010.78 1010.84 1010.88 1010.86 1010.76 1010.56 1010.30 1009.98 1009.66 1009.34
1016.82 1016.12 1015.23 1014.28 1013.39 1012.72 1012.33 1012.28 1012.54 1013.03 1013.61 1014.18 1014.62 1014.86 1014.87 1014.67 1014.33 1013.95 1013.60 1013.36 1013.24 1013.24 1013.32 1013.41 1013.44 1013.37 1013.17 1012.84 1012.43 1011.98 1011.57 1011.24 1011.02 1010.91 1010.89 1010.92 1010.95 1010.94 1010.85 1010.68 1010.43 1010.14 1009.82 1009.51
1017.95 1017.29 1016.45 1015.54 1014.69 1014.03 1013.64 1013.57 1013.79 1014.23 1014.77 1015.30 1015.72 1015.94 1015.95 1015.75 1015.42 1015.03 1014.66 1014.37 1014.19 1014.12 1014.12 1014.12 1014.07 1013.92 1013.65 1013.26 1012.79 1012.30 1011.83 1011.45 1011.18 1011.02 1010.97 1010.97 1010.99 1010.97 1010.90 1010.75 1010.53 1010.25 1009.95 1009.65
1018.73 1018.15 1017.39 1016.57 1015.80 1015.20 1014.85 1014.78 1014.97 1015.36 1015.84 1016.29 1016.63 1016.79 1016.73 1016.48 1016.10 1015.66 1015.25 1014.91 1014.68 1014.55 1014.50 1014.46 1014.38 1014.21 1013.93 1013.53 1013.06 1012.56 1012.08 1011.67 1011.37 1011.18 1011.09 1011.06 1011.06 1011.04 1010.97 1010.83 1010.62 1010.37 1010.08 1009.78
1019.16 1018.68 1018.05 1017.36 1016.73 1016.23 1015.96 1015.93 1016.12 1016.46 1016.86 1017.23 1017.46 1017.50 1017.34 1017.00 1016.53 1016.02 1015.53 1015.13 1014.85 1014.69 1014.61 1014.56 1014.49 1014.35 1014.10 1013.75 1013.31 1012.83 1012.37 1011.96 1011.64 1011.42 1011.30 1011.24 1011.21 1011.18 1011.10 1010.96 1010.76 1010.51 1010.22 1009.92
1019.33 1018.97 1018.50 1017.98 1017.51 1017.17 1017.01 1017.05 1017.26 1017.57 1017.90 1018.16 1018.27 1018.19 1017.90 1017.44 1016.86 1016.25 1015.68 1015.22 1014.89 1014.70 1014.62 1014.58 1014.54 1014.45 1014.26 1013.96 1013.59 1013.16 1012.72 1012.32 1012.00 1011.76 1011.61 1011.52 1011.46 1011.41 1011.31 1011.17 1010.96 1010.70 1010.41 1010.09
1019.36 1019.14 1018.84 1018.51 1018.24 1018.07 1018.05 1018.18 1018.42 1018.72 1018.99 1019.14 1019.13 1018.91 1018.48 1017.89 1017.20 1016.49 1015.85 1015.32 1014.95 1014.74 1014.65 1014.63 1014.63 1014.58 1014.45 1014.22 1013.91 1013.53 1013.13 1012.75 1012.42 1012.17 1012.00 1011.88 1011.80 1011.72 1011.60 1011.44 1011.23 1010.95 1010.63 1010.29
1019.42 1019.34 1019.21 1019.08 1019.00 1019.01 1019.12 1019.34 1019.62 1019.89 1020.09 1020.15 1020.01 1019.65 1019.10 1018.38 1017.59 1016.79 1016.08 1015.50 1015.09 1014.85 1014.76 1014.75 1014.78 1014.77 1014.69 1014.52 1014.25 1013.92 1013.55 1013.19 1012.87 1012.61 1012.42 1012.28 1012.18 1012.07 1011.94 1011.77 1011.53 1011.24 1010.89 1010.52
1019.65 1019.70 1019.73 1019.77 1019.86 1020.01 1020.24 1020.52 1020.81 1021.04 1021.16 1021.11 1020.84 1020.36 1019.69 1018.88 1018.00 1017.13 1016.37 1015.75 1015.32 1015.06 1014.96 1014.96 1014.99 1015.01 1014.95 1014.81 1014.58 1014.28 1013.93 1013.59 1013.28 1013.01 1012.81 1012.66 1012.55 1012.43 1012.29 1012.10 1011.85 1011.54 1011.17 1010.76
1020.15 1020.30 1020.46 1020.63 1020.84 1021.10 1021.38 1021.68 1021.93 1022.09 1022.11 1021.93 1021.55 1020.95 1020.17 1019.28 1018.34 1017.44 1016.65 1016.02 1015.58 1015.32 1015.21 1015.21 1015.24 1015.26 1015.22 1015.09 1014.87 1014.58 1014.25 1013.92 1013.61 1013.35 1013.14 1012.99 1012.87 1012.75 1012.61 1012.41 1012.16 1011.83 1011.45 1011.02
1020.91 1021.14 1021.38 1021.64 1021.92 1022.21 1022.49 1022.74 1022.91 1022.96 1022.84 1022.53 1022.01 1021.30 1020.45 1019.50 1018.54 1017.63 1016.85 1016.24 1015.81 1015.56 1015.46 1015.46 1015.49 1015.50 1015.45 1015.32 1015.10 1014.82 1014.49 1014.16 1013.86 1013.60 1013.40 1013.25 1013.14 1013.02 1012.88 1012.70 1012.44 1012.12 1011.73 1011.29
1021.86 1022.14 1022.42 1022.71 1022.99 1023.26 1023.48 1023.62 1023.66 1023.56 1023.28 1022.82 1022.17 1021.37 1020.45 1019.47 1018.52 1017.64 1016.91 1016.35 1015.97 1015.76 1015.68 1015.68 1015.71 1015.72 1015.66 1015.52 1015.30 1015.01 1014.68 1014.35 1014.05 1013.80 1013.60 1013.46 1013.35 1013.25 1013.12 1012.95 1012.71 1012.40 1012.02 1011.59
1022.86 1023.15 1023.44 1023.72 1023.95 1024.14 1024.25 1024.25 1024.12 1023.85 1023.40 1022.78 1022.01 1021.12 1020.16 1019.19 1018.28 1017.47 1016.81 1016.33 1016.03 1015.88 1015.85 1015.88 1015.92 1015.93 1015.86 1015.72 1015.48 1015.19 1014.86 1014.52 1014.22 1013.97 1013.77 1013.64 1013.53 1013.44 1013.32 1013.17 1012.95 1012.66 1012.31 1011.91
1023.73 1024.02 1024.29 1024.52 1024.68 1024.76 1024.73 1024.57 1024.27 1023.80 1023.19 1022.43 1021.56 1020.61 1019.64 1018.70 1017.85 1017.13 1016.58 1016.21 1016.00 1015.94 1015.97 1016.05 1016.12 1016.14 1016.08 1015.92 1015.68 1015.38 1015.04 1014.70 1014.39 1014.13 1013.93 1013.79 1013.69 1013.60 1013.50 1013.36 1013.17 1012.91 1012.60 1012.24
1024.33 1024.60 1024.83 1025.00 1025.08 1025.04 1024.88 1024.56 1024.09 1023.46 1022.71 1021.83 1020.88 1019.90 1018.94 1018.06 1017.30 1016.70 1016.27 1016.02 1015.93 1015.96 1016.07 1016.21 1016.31 1016.35 1016.30 1016.15 1015.90 1015.59 1015.24 1014.89 1014.56 1014.29 1014.07 1013.92 1013.80 1013.71 1013.62 1013.50 1013.34 1013.12 1012.85 1012.54
1024.56 1024.81 1025.00 1025.11 1025.11 1024.97 1024.69 1024.24 1023.64 1022.89 1022.02 1021.07 1020.08 1019.10 1018.18 1017.38 1016.72 1016.24 1015.95 1015.82 1015.85 1015.98 1016.16 1016.35 1016.49 1016.55 1016.51 1016.36 1016.11 1015.79 1015.42 1015.05 1014.71 1014.41 1014.17 1013.99 1013.86 1013.76 1013.66 1013.56 1013.42 1013.24 1013.02 1012.76
1024.41 1024.63 1024.79 1024.85 1024.79 1024.58 1024.21 1023.67 1022.98 1022.16 1021.24 1020.26 1019.27 1018.32 1017.46 1016.75 1016.20 1015.84 1015.66 1015.65 1015.77 1015.98 1016.23 1016.47 1016.64 1016.72 1016.68 1016.52 1016.27 1015.93 1015.54 1015.15 1014.78 1014.45 1014.17 1013.96 1013.81 1013.69 1013.59 1013.49 1013.38 1013.23 1013.06 1012.86
Thickness
5776 5764 5757 5767 5775 5777 5777 5771 5768 5777 5792 5784 5779 5780 5783 5788 5787 5782 5782 5780 5774 5771 5772 5769 5766 5762 5759 5755 5751 5748 5743 5740 5737 5733 5729 5725 5722 5721 5720 5719 5717 5715 5712 5709
5767 5761 5774 5782 5783 5779 5774 5766 5765 5774 5786 5779 5771 5768 5779 5782 5782 5783 5780 5776 5771 5767 5763 5761 5758 5755 5751 5746 5745 5742 5739 5736 5732 5729 5726 5723 5720 5718 5717 5716 5714 5712 5709 5707
5759 5769 5782 5776 5771 5769 5767 5762 5759 5759 5774 5776 5767 5756 5763 5774 5780 5780 5778 5772 5767 5761 5756 5752 5749 5747 5743 5739 5737 5736 5733 5731 5728 5724 5721 5718 5716 5713 5711 5710 5709 5708 5706 5703
5763 5776 5774 5766 5765 5765 5755 5771 5767 5760 5754 5752 5759 5738 5749 5760 5761 5764 5766 5762 5759 5757 5749 5745 5742 5738 5735 5733 5731 5729 5727 5724 5722 5719 5716 5713 5710 5707 5707 5706 5706 5704 5702 5700
5758 5767 5765 5759 5762 5766 5764 5775 5767 5760 5753 5746 5752 5739 5740 5753 5745 5749 5755 5755 5753 5751 5743 5738 5735 5732 5730 5728 5726 5724 5721 5718 5716 5714 5713 5710 5707 5705 5705 5702 5701 5699 5697 5696
5762 5774 5770 5765 5770 5772 5771 5766 5761 5758 5751 5726 5739 5735 5725 5734 5736 5742 5746 5745 5745 5742 5737 5732 5729 5726 5723 5722 5720 5718 5715 5712 5710 5709 5709 5706 5703 5701 5699 5697 5695 5694 5693 5691
5750 5762 5770 5770 5756 5761 5758 5741 5724 5719 5717 5719 5742 5732 5720 5734 5738 5737 5735 5737 5739 5736 5730 5725 5720 5717 5715 5714 5713 5712 5709 5706 5705 5703 5702 5701 5700 5698 5695 5693 5692 5690 5687 5685
5728 5732 5751 5756 5746 5738 5742 5737 5711 5699 5701 5713 5729 5718 5719 5734 5736 5733 5732 5732 5730 5725 5722 5718 5715 5712 5710 5708 5707 5706 5704 5701 5700 5698 5697 5696 5695 5693 5692 5690 5688 5686 5683 5681
5718 5722 5747 5752 5754 5745 5734 5732 5738 5720 5714 5708 5713 5716 5716 5724 5722 5722 5724 5724 5719 5716 5714 5712 5710 5707 5705 5703 5701 5701 5699 5696 5694 5693 5692 5691 5690 5688 5686 5684 5683 5681 5679 5678
5723 5714 5734 5746 5749 5748 5741 5735 5723 5709 5691 5688 5700 5701 5693 5699 5704 5710 5714 5713 5712 5711 5710 5707 5705 5703 5702 5700 5697 5696 5695 5692 5690 5689 5687 5687 5685 5683 5681 5679 5677 5675 5674 5673
5721 5706 5717 5728 5724 5721 5724 5722 5716 5710 5703 5687 5679 5683 5699 5699 5703 5703 5705 5708 5706 5706 5705 5702 5700 5700 5698 5696 5694 5692 5690 5688 5686 5684 5683 5682 5680 5679 5677 5675 5673 5671 5670 5668
5713 5706 5700 5712 5730 5733 5721 5716 5710 5690 5687 5694 5684 5678 5704 5703 5703 5700 5700 5702 5701 5700 5700 5698 5695 5694 5691 5690 5689 5687 5686 5684 5682 5681 5679 5677 5675 5674 5672 5670 5668 5667 5665 5663
5704 5696 5685 5694 5705 5713 5709 5710 5709 5702 5694 5688 5680 5676 5700 5700 5698 5699 5697 5697 5695 5694 5693 5692 5690 5687 5685 5684 5684 5683 5682 5681 5680 5678 5676 5673 5671 5669 5667 5666 5665 5663 5661 5660
5703 5691 5680 5671 5679 5692 5694 5699 5703 5699 5686 5679 5679 5679 5685 5688 5688 5688 5690 5691 5690 5688 5686 5685 5683 5681 5680 5679 5679 5679 5678 5678 5676 5674 5671 5669 5667 5665 5664 5663 5661 5660 5658 5656
5700 5685 5686 5690 5695 5696 5692 5692 5697 5692 5687 5677 5677 5677 5677 5682 5683 5684 5685 5685 5683 5681 5680 5679 5677 5675 5674 5673 5673 5674 5674 5674 5672 5670 5667 5665 5664 5663 5661 5659 5657 5656 5654 5653
5695 5682 5681 5683 5694 5694 5690 5692 5693 5692 5689 5681 5678 5676 5684 5686 5686 5684 5682 5681 5678 5677 5676 5675 5673 5671 5670 5669 5669 5669 5670 5669 5668 5666 5664 5663 5661 5660 5658 5656 5654 5652 5650 5649
5688 5680 5673 5675 5689 5686 5675 5683 5686 5683 5685 5679 5668 5670 5680 5679 5679 5679 5679 5677 5675 5674 5672 5670 5669 5667 5666 5665 5665 5664 5665 5666 5665 5663 5662 5660 5658 5656 5655 5653 5651 5649 5647 5645
5681 5677 5675 5674 5676 5659 5672 5693 5690 5683 5680 5679 5677 5676 5677 5676 5678 5680 5679 5676 5673 5672 5670 5668 5667 5665 5664 5664 5663 5662 5663 5662 5661 5660 5659 5658 5656 5654 5652 5650 5648 5646 5644 5642
5691 5678 5672 5670 5666 5668 5677 5686 5685 5676 5669 5674 5673 5674 5676 5679 5678 5677 5678 5676 5672 5671 5669 5667 5667 5665 5664 5663 5662 5661 5660 5659 5659 5659 5657 5655 5654 5652 5650 5648 5646 5645 5642 5640
5691 5684 5672 5668 5658 5650 5663 5684 5690 5680 5662 5670 5671 5670 5671 5672 5665 5666 5673 5673 5671 5670 5669 5667 5666 5665 5663 5662 5661 5659 5658 5657 5657 5657 5656 5655 5653 5651 5648 5647 5645 5644 5641 5639
5672 5672 5666 5663 5656 5657 5671 5684 5683 5657 5650 5667 5670 5669 5669 5665 5663 5667 5670 5670 5669 5669 5669 5668 5666 5664 5662 5662 5660 5658 5657 5656 5657 5658 5656 5654 5652 5650 5648 5647 5645 5643 5641 5639
5663 5661 5660 5659 5651 5649 5673 5676 5663 5656 5665 5668 5669 5670 5668 5667 5668 5669 5668 5668 5668 5667 5667 5666 5664 5662 5662 5661 5659 5657 5656 5658 5658 5657 5655 5653 5651 5650 5649 5646 5644 5642 5640 5637
5663 5659 5658 5655 5654 5664 5672 5669 5669 5669 5667 5668 5669 5670 5669 5667 5667 5667 5666 5666 5666 5666 5666 5665 5664 5662 5661 5662 5660 5657 5657 5658 5657 5655 5653 5652 5651 5649 5648 5645 5643 5641 5638 5636
5665 5668 5662 5658 5663 5669 5671 5672 5672 5671 5669 5670 5671 5671 5671 5668 5668 5667 5666 5665 5665 5665 5665 5665 5664 5662 5661 5661 5661 5659 5659 5658 5656 5654 5652 5652 5650 5649 5647 5645 5643 5640 5637 5635
5660 5662 5658 5656 5662 5665 5668 5670 5670 5671 5672 5671 5672 5672 5671 5670 5669 5668 5666 5665 5664 5664 5663 5664 5662 5661 5661 5661 5660 5660 5660 5659 5656 5654 5653 5652 5651 5649 5646 5643 5640 5638 5635 5633
5662 5658 5652 5652 5658 5657 5660 5668 5671 5669 5669 5670 5670 5670 5672 5672 5670 5669 5666 5665 5663 5663 5662 5662 5661 5661 5661 5661 5660 5660 5661 5659 5656 5654 5652 5652 5651 5649 5647 5644 5639 5636 5633 5630